TimeEST,TemperatureF,Dew PointF,Humidity,Sea Level PressureIn,VisibilityMPH,Wind Direction,Wind SpeedMPH,Gust SpeedMPH,PrecipitationIn,Events,Conditions,WindDirDegrees,DateUTC
12:20 AM,37.4,35.6,93,29.92,1.2,East,8.1,-,N/A,,Overcast,100,2013-01-29 05:20:00
12:37 AM,37.4,35.6,93,29.91,0.8,ESE,9.2,-,N/A,,Overcast,110,2013-01-29 05:37:00
12:53 AM,37.0,37.0,100,29.91,1.0,ESE,11.5,-,N/A,,Mist,120,2013-01-29 05:53:00
1:18 AM,37.4,37.4,100,29.88,1.5,SE,9.2,-,N/A,,Overcast,130,2013-01-29 06:18:00
1:53 AM,41.0,39.9,96,29.86,2.5,SE,15.0,-,0.06,Rain,Rain,140,2013-01-29 06:53:00
1:59 AM,41.0,39.2,93,29.83,4.0,SE,13.8,-,0.01,Rain,Light Rain,130,2013-01-29 06:59:00
2:07 AM,42.8,41.0,93,29.84,5.0,SE,12.7,-,0.01,Thunderstorm,Overcast,140,2013-01-29 07:07:00
2:22 AM,42.8,42.8,100,29.83,4.0,SSE,9.2,20.7,0.03,Rain,Rain,160,2013-01-29 07:22:00
2:37 AM,42.8,42.8,100,29.82,5.0,SSE,9.2,-,0.04,Rain-Thunderstorm,Thunderstorms and Rain,150,2013-01-29 07:37:00
2:53 AM,43.0,43.0,100,29.82,4.0,ESE,6.9,-,0.05,Thunderstorm,Overcast,120,2013-01-29 07:53:00
3:11 AM,44.6,44.6,100,29.79,2.5,SE,10.4,20.7,0.00,,Overcast,140,2013-01-29 08:11:00
3:31 AM,46.4,46.4,100,29.78,1.8,SSE,12.7,18.4,0.00,,Overcast,160,2013-01-29 08:31:00
3:53 AM,46.9,46.9,100,29.78,1.2,SSE,10.4,-,0.00,,Overcast,150,2013-01-29 08:53:00
4:53 AM,52.0,52.0,100,29.74,1.0,South,12.7,21.9,N/A,,Overcast,180,2013-01-29 09:53:00
5:35 AM,53.6,53.6,100,29.73,1.8,SSW,11.5,19.6,0.00,Rain,Light Rain,200,2013-01-29 10:35:00
5:43 AM,53.6,53.6,100,29.72,2.5,South,12.7,-,0.01,Rain,Light Rain,190,2013-01-29 10:43:00
5:50 AM,53.6,53.6,100,29.72,3.0,SSW,10.4,19.6,0.01,Rain,Light Rain,200,2013-01-29 10:50:00
5:51 AM,54.0,54.0,100,29.73,3.0,South,10.4,19.6,0.01,Rain,Light Rain,190,2013-01-29 10:51:00
7:53 AM,57.0,55.0,93,29.73,5.0,SSW,11.5,-,N/A,,Overcast,200,2013-01-29 12:53:00
8:53 AM,57.0,55.0,93,29.71,3.0,South,15.0,23.0,N/A,,Overcast,190,2013-01-29 13:53:00
9:46 AM,57.2,55.4,94,29.72,4.0,South,12.7,-,N/A,,Overcast,190,2013-01-29 14:46:00
9:53 AM,57.0,55.0,93,29.72,4.0,South,12.7,-,N/A,,Overcast,190,2013-01-29 14:53:00
10:53 AM,57.0,55.0,93,29.72,5.0,South,11.5,-,0.00,,Overcast,190,2013-01-29 15:53:00
11:53 AM,57.0,55.0,93,29.71,7.0,South,11.5,21.9,0.01,,Overcast,190,2013-01-29 16:53:00
12:24 PM,57.2,55.4,94,29.69,5.0,South,15.0,20.7,N/A,,Overcast,190,2013-01-29 17:24:00
1:29 PM,57.2,55.4,94,29.64,4.0,SSW,13.8,24.2,N/A,,Overcast,200,2013-01-29 18:29:00
1:53 PM,57.9,55.9,93,29.64,5.0,South,16.1,23.0,N/A,,Overcast,190,2013-01-29 18:53:00
2:10 PM,57.2,55.4,94,29.62,7.0,South,10.4,23.0,N/A,,Overcast,190,2013-01-29 19:10:00
2:53 PM,57.9,55.9,93,29.61,5.0,South,10.4,-,0.00,Rain,Light Rain,180,2013-01-29 19:53:00
3:53 PM,59.0,55.9,90,29.59,3.0,South,11.5,21.9,0.00,,Overcast,190,2013-01-29 20:53:00
4:36 PM,59.0,55.4,88,29.58,5.0,South,13.8,-,0.00,Rain,Light Rain,190,2013-01-29 21:36:00
4:53 PM,59.0,55.9,90,29.57,5.0,South,16.1,24.2,0.00,,Overcast,180,2013-01-29 21:53:00
5:43 PM,57.2,55.4,94,29.56,4.0,South,10.4,25.3,N/A,,Overcast,180,2013-01-29 22:43:00
5:53 PM,59.0,55.9,90,29.54,6.0,South,13.8,26.5,N/A,,Overcast,180,2013-01-29 22:53:00
6:21 PM,59.0,55.4,88,29.53,6.0,South,15.0,23.0,N/A,,Overcast,170,2013-01-29 23:21:00
6:53 PM,59.0,55.0,87,29.52,7.0,South,13.8,25.3,N/A,,Overcast,170,2013-01-29 23:53:00
7:39 PM,59.0,55.4,88,29.49,8.0,South,16.1,26.5,N/A,,Overcast,170,2013-01-30 00:39:00
7:53 PM,59.0,55.0,87,29.48,5.0,South,16.1,25.3,0.02,Rain,Light Rain,180,2013-01-30 00:53:00
8:39 PM,59.0,55.4,88,29.43,3.0,South,17.3,33.4,0.04,Rain-Thunderstorm,Thunderstorms and Rain,170,2013-01-30 01:39:00
8:53 PM,59.0,55.0,87,29.43,9.0,South,17.3,28.8,0.04,Rain-Thunderstorm,Light Rain,170,2013-01-30 01:53:00
9:05 PM,60.8,55.4,82,29.44,8.0,South,18.4,26.5,0.00,Rain,Light Rain,190,2013-01-30 02:05:00
9:24 PM,55.4,53.6,94,29.47,3.0,WSW,16.1,28.8,0.08,Rain,Rain,250,2013-01-30 02:24:00
9:33 PM,53.6,51.8,94,29.46,2.0,West,12.7,24.2,0.14,Rain,Heavy Rain,270,2013-01-30 02:33:00
9:42 PM,53.6,51.8,94,29.46,3.0,WSW,8.1,-,0.15,Rain,Light Rain,250,2013-01-30 02:42:00
9:53 PM,53.1,51.1,93,29.46,2.0,West,9.2,-,0.19,Rain,Rain,270,2013-01-30 02:53:00
10:01 PM,51.8,51.8,100,29.45,2.5,West,4.6,-,0.01,Rain,Light Rain,260,2013-01-30 03:01:00
10:37 PM,51.8,51.8,100,29.44,2.0,WSW,6.9,-,0.05,Rain,Rain,240,2013-01-30 03:37:00
10:51 PM,51.8,51.8,100,29.42,2.5,SW,4.6,-,0.05,Rain,Light Rain,220,2013-01-30 03:51:00
10:53 PM,51.1,51.1,100,29.43,4.0,SW,3.5,-,0.05,Rain,Light Rain,220,2013-01-30 03:53:00
11:04 PM,51.8,51.8,100,29.42,1.5,WNW,3.5,-,0.01,Rain,Light Rain,290,2013-01-30 04:04:00
11:10 PM,51.8,51.8,100,29.42,1.2,West,3.5,-,0.01,Rain,Light Rain,260,2013-01-30 04:10:00
11:24 PM,51.8,51.8,100,29.41,0.5,Calm,Calm,-,0.01,Fog,Fog,0,2013-01-30 04:24:00
11:32 PM,51.8,51.8,100,29.42,0.5,Calm,Calm,-,0.02,Fog-Rain,Light Rain,0,2013-01-30 04:32:00
11:53 PM,51.1,51.1,100,29.40,0.5,Calm,Calm,-,0.03,Fog-Rain,Light Rain,0,2013-01-30 04:53:00